User: anonymous   Login
Location: Chèvreville
(49.1099°N, 2.8495°E)
Time: 10:27:57
(UTC+00:00)
Language:

STARS - Orbit

View from above orbital plane
View from above orbital plane
View from above satellite
View from above satellite

Ground track
Ground track

The orbit data is extracted from the following two-line orbital elements,

1 33498U 09002G   23333.62793238  .00007292  00000-0  89459-3 0  9990
2 33498  98.1253 239.1690 0009859 347.9741  12.1235 14.83379942799923
Epoch (UTC): 29 November 2023 15:04:13
Eccentricity: 0.0009859
inclination: 98.1253°
perigee height: 612 km
apogee height: 625 km
right ascension of ascending node: 239.1690°
argument of perigee: 347.9741°
revolutions per day: 14.83379942
mean anomaly at epoch: 12.1235°
orbit number at epoch: 79992

The dashed part of the orbit path shows where the satellite is in the earth's shadow,  

DLR